Location: Slidell
(30.2789°N, 89.7378°W)
Time: 09:20:20
(UTC-05:00)

N. Korean satellite - Visible Passes

Search period start: 25 August 2019 00:00
Search period end: 04 September 2019 00:00
Orbit: 457 x 507 km, 97.2° (Epoch: 24 August)

Date Brightness Start Highest point End Pass type
(mag) Time Alt. Az. Time Alt. Az. Time Alt. Az.
26 Aug 9.8 05:58:46 10° ENE 06:00:29 13° E 06:02:11 10° ESE visible
30 Aug 10.4 05:52:52 10° E 05:53:08 10° E 05:53:25 10° E visible
02 Sep 9.6 06:08:37 10° NE 06:11:06 18° E 06:13:33 10° SE visible
